Location: Recife
(8.0585°S, 34.8848°W)
Time: 04:43:35
(UTC-03:00)

Courier 1B - Pass Details

Date: 19 April 2026
Orbit: 962 x 1209 km, 28.3° (Epoch: 14 May)

Event Time Altitude Azimuth Distance (km) Brightness Sun altitude
Rises 03:37:17 0° 299° (WNW) 3,841 - -26.3°
Reaches altitude 10° 03:39:57 10° 299° (WNW) 2,924 - -25.7°
Exits shadow 03:44:18 41° 298° (WNW) 1,562 8.1 -24.6°
Maximum altitude 03:47:12 88° 211° (SSW) 1,141 7.7 -23.9°
Drops below altitude 10° 03:54:57 10° 119° (ESE) 3,101 10.8 -22.0°
Sets 03:57:50 0° 119° (ESE) 4,087 11.6 -21.3°
